Zurück zum Katalog

COSMOS 886 DEB

AktivLEO
NORAD 9807·DEBRIS·🇷🇺 Russia

Gestartet Dec 27, 1976 von Baikonur Cosmodrome

Loading…

Nächste Überflüge (nächste 24 Stunden)

TLE

AktuellSource: Space-Track

Epoche: Sep 13, 2026, 20:42 UTC

1  9807U 76126AA  26256.86275772  .00011926  00000-0  15960-2 0  9993
2  9807  65.7663  65.1442 0347875 152.9930 208.9757 14.45542333447720

Verfolge COSMOS 886 DEB in Echtzeit mit AllMySat

Download on the App Store